[Date Prev][Date Next][Thread Prev][Thread Next] - [Date Index][Thread Index][Author Index]

2 Line ISS Keos 9-2



ISS
1 25544U 98067A   04246.30254506  .00016546  00000-0  14369-3 0  5906
2 25544  51.6367 292.0806 0005612 104.6701 348.2119 15.69228807330439
----
Via the sarex mailing list at AMSAT.ORG courtesy of AMSAT-NA.
To unsubscribe, send "unsubscribe sarex" to Majordomo@amsat.org



AMSAT Top AMSAT Home